Preview of NWS' New Version of Forecast
This preview is not operational and should not be used for support decisions.
Latest weather observations around

Jackson, Jackson International Airport (KJAN)

Using English Units (Switch to International System of Units)
Date/ Time (CDT) Wind (mph) Vis. (mi) Weather Sky Cond. Temp (°F) Rel. Humidity Wind Chill (°F) Heat Index (°F) Pressure Precip. (in)
Air Dwpt 6 hour Altimeter (inHg) Sea level (inHg) 1 hr 3 hr 6 hr
Max Min
Aug 24 22:54 S 6 10 Mostly Cloudy SCT039 BKN085 BKN110 76        %     30 29.98      
Aug 24 21:54 SW 3 10 Mostly Clear FEW039 FEW095 77 70     79%   78 29.99 29.97      
Aug 24 20:54 WSW 3 10 Mostly Cloudy FEW060 BKN150 77 71     82%   78 29.98 29.96      
Aug 24 19:54 WSW 9 10 Mostly Cloudy FEW040 BKN060 BKN075 BKN150 81 71     72%   85 29.98 29.96      
Aug 24 18:54 Calm 10 Mostly Cloudy FEW041 BKN150 86        %     29.94 29.93      
Aug 24 18:32 E 3 10 Mostly Cloudy FEW041 BKN150 87 70     57%   92 29.94        
Aug 24 18:18 ESE 5 10 Thunderstorms FEW041 BKN150 88 70     55%   93 29.93        
Aug 24 17:54 ESE 7 10 Mostly Cloudy FEW041 BKN150 89 70     53%   94 29.94 29.92      
Aug 24 17:51 SE 7 10 Mostly Cloudy FEW041 BKN150 90 70     52%   95 29.94        
Aug 24 16:54 SE 5 10 Mostly Cloudy FEW041 BKN150 89 70     53%   94 29.94 29.92      
Aug 24 15:54 E 7 10 Mostly Cloudy SCT039 SCT046 BKN120 90 71     54%   96 29.94 29.92      
Aug 24 14:54 3 10 Mostly Cloudy BKN039 BKN049 BKN120 91 71     52%   98 29.96 29.94      
Aug 24 13:54 NNE 6 10 Mostly Cloudy BKN037 BKN048 BKN120 90 71     54%   96 29.99 29.97      
Aug 24 12:54 E 5 10 Mostly Cloudy FEW038 SCT049 BKN120 89        %     30 29.98     0
Aug 24 11:54 Calm 10 Mostly Cloudy FEW031 SCT038 BKN120 88        %     30.02 30.01      
Aug 24 10:54 Calm 10 Partly Cloudy FEW021 SCT120 87        %     30.03 30.01      
Aug 24 09:54 Calm 10 Mostly Cloudy FEW020 BKN110 82 73     74%   87 30.03 30.01   0  
Aug 24 08:54 Calm 10 Mostly Cloudy BKN110 79 74     85%   83 30.02 30.01      
Aug 24 07:54 Calm 10 Mostly Cloudy BKN110 77 74     90%   79 30.03 30.01 0    
Aug 24 06:54 Calm 10 Cloudy OVC100 75 73     94%   77 30.03 30.02 0   0
Aug 24 05:54 Calm 10 Light Rain BKN110 75        %     30.02 30.01 0    
Aug 24 04:54 Calm 10 Clear CLR 75        %     30.01 29.99      
Aug 24 03:54 Calm 10 Mostly Clear FEW110 74        %     30 29.98      
Aug 24 02:54 Calm 10 Clear CLR 75        %     29.99 29.97      
Aug 24 01:54 ESE 3 10 Clear CLR 74 72     94%   75 29.99 29.98      
Aug 24 00:54 S 3 10 Clear CLR 75 72     90%   76 29.99 29.97     0
Aug 23 23:54 SE 3 10 Clear CLR 76 73     91%   77 29.99 29.98      
Aug 23 22:54 E 5 10 Clear CLR 77        %     30 29.98      
Aug 23 21:54 S 3 10 Clear CLR 77 74     90%   79 29.98 29.96   0  
Aug 23 20:54 S 5 10 Clear CLR 77 74     90%   79 29.98 29.96      
Aug 23 19:54 S 6 10 Clear CLR 78 73     85%   80 29.96 29.94 0    
Aug 23 18:54 SSW 3 10 Mostly Cloudy FEW050 SCT070 BKN095 78        %     29.97 29.96 0   0
Aug 23 17:54 SSW 5 10 Mostly Cloudy FEW050 SCT120 BKN250 78 71     79%   79 29.98 29.97 0    
Aug 23 17:07 S 10 10 Light Rain FEW046 SCT070 BKN090 80 70     71%   83 29.96   0    
Aug 23 16:54 S 9 10 Partly Cloudy SCT042 SCT070 81 71     72%   85 29.96 29.94 0    
Aug 23 16:23 SE 9 10 Thunderstorms and Rain SCT032 BKN120 81 68     65%   84 29.96   0    
Aug 23 16:09 SSE 8 10 Mostly Cloudy SCT047 BKN065 81 68     65%   84 29.96        
Aug 23 15:54 SSE 15 10 Thunderstorms SCT050 BKN065 81 67     62%   83 29.95 29.94      
Aug 23 15:43   10 Thunderstorms SCT050 BKN065 82 68     63%   85 29.96        
Aug 23 15:29   10 Thunderstorms SCT050 BKN065 88 70     55%   93 29.97        
Aug 23 14:54 E 7 10 Mostly Cloudy SCT055 BKN120 93 69     46%   98 29.95 29.94      
Aug 23 14:14 ESE 6 10 Partly Cloudy SCT042 SCT055 91 70     50%   97 29.98        
Aug 23 13:54 5 10 Mostly Cloudy BKN042 BKN050 92 70     49%   98 29.98 29.96      
Aug 23 12:54 SSW 5 10 Mostly Cloudy BKN043 BKN049 88        %     29.98 29.96      
Aug 23 11:54 W 3 10 Mostly Cloudy SCT034 BKN250 91        %     30.01 29.99      
Aug 23 10:54 NE 3 10 Mostly Cloudy SCT026 BKN250 89        %     30.02 30.01      
Aug 23 09:54 3 10 Partly Cloudy SCT025 85 73     68%   92 30.04 30.02      
Aug 23 08:54 SSW 5 10 Partly Cloudy SCT250 81 73     77%   86 30.04 30.02      
Aug 23 07:54 S 6 10 Partly Cloudy SCT250 77 73     88%   79 30.02 30      
Aug 23 06:54 S 8 10 Partly Cloudy SCT250 75 72     90%   76 30 29.98      
Aug 23 05:54 SE 5 9 Clear CLR 74 71     91%   75 29.99 29.98      
Aug 23 04:54 Calm 8 Clear CLR 74        %     29.98 29.96      
Aug 23 03:54 SSE 6 10 Clear CLR 74        %     29.96 29.95      
Aug 23 02:54 Calm 10 Clear CLR 74        %     29.97 29.96      
Aug 23 01:54 Calm 10 Clear CLR 76 72     88%   77 29.99 29.98      
Aug 23 00:54 S 5 10 Clear CLR 77 73     88%   79 30 29.98      
Aug 22 23:54 S 7 10 Clear CLR 78 74     87%   80 30 29.98      
Aug 22 22:54 SSE 7 10 Clear CLR 78 74     87%   80 29.98 29.97      
Aug 22 21:54 SSE 5 10 Clear CLR 78 74     87%   80 29.98 29.96      
Aug 22 20:54 SE 3 10 Clear CLR 79 74     85%   83 29.97 29.95      
Aug 22 19:54 SE 5 10 Partly Cloudy FEW100 SCT250 80        %     29.95 29.94      
Aug 22 18:54 SE 3 10 Mostly Cloudy FEW065 SCT100 BKN250 85        %     29.95 29.93     0
Aug 22 17:54 ENE 3 10 Mostly Cloudy SCT075 BKN110 85        %     29.96 29.94      
Aug 22 16:54 SSE 6 10 Mostly Cloudy FEW037 SCT075 BKN110 85 72     65%   91 29.96 29.95      
Aug 22 16:03 SSW 3 10 Mostly Cloudy FEW037 SCT075 BKN110 83 73     72%   89 29.95        
Aug 22 15:54 S 3 10 Mostly Cloudy SCT037 BKN075 BKN100 83 73     72%   89 29.95 29.93 0 0  
Aug 22 15:20 Calm 10 Thunderstorms SCT037 BKN075 BKN100 81 72     74%   85 29.98   0    
Aug 22 14:54 SSW 3 10 Mostly Cloudy SCT050 BKN100 80 73     79%   84 29.98 29.96 0    
Aug 22 14:50 SSW 6 10 Mostly Cloudy SCT050 BKN100 81 73     79%   85 29.98   0    
Aug 22 13:54 S 8 10 Thunderstorms and Rain SCT050 BKN100 80        %     30.01 30 0    
Aug 22 13:37 SE 5 9 Thunderstorms and Rain SCT050 BKN100 79        %     30.01   0    
Aug 22 12:54 SSE 9 10 Mostly Cloudy SCT055 BKN100 85 73     68%   92 30.01 30     0
Aug 22 11:54 W 7 10 Mostly Cloudy FEW043 BKN100 87        %     30.02 30.01      
Aug 22 10:54 W 7 10 Mostly Cloudy SCT014 BKN100 84 74     72%   91 30.04 30.02      
Aug 22 09:54 SSW 8 10 Mostly Cloudy SCT012 BKN100 81 74     79%   86 30.04 30.02   0  
Aug 22 09:01 SW 5 10 Mostly Cloudy FEW004 SCT065 BKN100 79 74     85%   83 30.04        
Aug 22 08:54 SSW 5 10 Mostly Cloudy BKN065 78 74     87%   80 30.04 30.03 0    
Aug 22 07:54 WSW 3 6 Light Rain and Fog/Mist BKN060 BKN080 OVC095 76 73     91%   77 30.05 30.03 0    
Aug 22 07:51 WSW 3 3 Rain and Fog/Mist BKN060 BKN080 OVC110 75 73     94%   77 30.05   0    
Aug 22 07:42 SSW 7 2.5 Light Rain and Fog/Mist FEW029 BKN065 OVC100 76 73     91%   77 30.05   0    
Aug 22 06:54 S 6 8 Cloudy FEW005 BKN034 OVC060 75 71     88%   76 30.04 30.03      
Aug 22 06:08 S 3 8 Cloudy FEW006 OVC050 74 71     91%   75 30.04        
Aug 22 05:54 Calm 9 Cloudy FEW025 OVC050 74 71     91%   75 30.04 30.02      
Aug 22 04:54 SSW 3 8 Mostly Clear FEW006 FEW024 73        %     30.02 30.01      
Aug 22 04:41 SSW 3 8 Partly Cloudy SCT007 SCT021 73        %     30.02        
Aug 22 03:54 S 3 9 Mostly Cloudy BKN006 73 70     90%   74 30.02 30      
Aug 22 03:15 S 5 10 Mostly Cloudy BKN006 BKN026 74 70     87%   75 30.01        
Aug 22 02:54 S 3 10 Mostly Cloudy SCT006 BKN026 73        %     30 29.99      
Aug 22 02:26 S 5 10 Mostly Clear FEW005 73        %     30        
Aug 22 01:54 S 7 10 Clear CLR 74 71     91%   75 30 29.98      
Aug 22 00:54 SSE 8 10 Mostly Clear FEW007 74        %     30.01 29.99      
Aug 22 00:49 SSE 7 10 Mostly Clear FEW007 75        %     30.01        
Aug 22 00:28 S 8 10 Partly Cloudy SCT008 75        %     30.02        
Aug 21 23:54 S 9 10 Cloudy OVC007 76        %     30.03 30.01      
Aug 21 22:38 S 7 10 Mostly Cloudy BKN011 76        %     30.03        
Aug 21 21:54 SE 5 10 Mostly Clear FEW020 76        %     30.03 30.01      
May 15 01:54 E 3 10 Clear CLR 69 67     93%     29.94 29.93      
May 14 05:54 Calm 10 Clear CLR 66 65     96%     30.03 30.01      
May 12 01:54 S 5 10 Clear CLR 68 60     76%     30.05 30.03      
May 11 15:54 SSW 10 10 Partly Cloudy SCT065 86 59     40%   85 30.02 30.01      
Jun 11 19:54 NE 8 10 Mostly Cloudy FEW150 BKN250 77 72     84%   78 30.03 30.01      
Jun 10 12:54 3 10 Mostly Cloudy SCT050 SCT060 BKN250 83 63     51%   84 30.03 30.02      
Jun 09 22:54 Calm 10 Mostly Clear FEW065 67 62     84%     29.96 29.95      
Jun 09 14:54 N 3 10 Mostly Cloudy BKN060 83 57     41%   82 29.95 29.94      
Jun 09 07:54 Calm 10 Clear CLR 69 62     78%     29.98 29.96      
Jun 09 04:54 Calm 10 Clear CLR 59 57     93%     29.93 29.92      
Jun 08 18:54 N 7 10 Mostly Clear FEW055 77 57     50%   77 29.89 29.88      
Jun 07 15:54   10 Mostly Clear FEW250 82 55     40%   81 29.86 29.84      
Jun 07 14:54   10 Mostly Clear FEW250 82 56     41%   82 29.86 29.85      
Jun 07 12:54 NNE 13 10 Mostly Clear FEW040 80 58     47%   80 29.86 29.85      
Notice The following observation data may not be complete
Jun 06 12:11   10 Mostly Cloudy BKN015 BKN021          %         0    
Jun 06 04:54 Calm 9 Light Rain SCT006 BKN060 OVC075 72 71     97%   73 29.74 29.72 0    
Jun 06 03:17 Calm 10 Mostly Cloudy SCT004 BKN100 71 71     100%   73 29.73   0    
Jun 05 23:54 E 7 10 Clear CLR 71 69     93%   72 29.75 29.74      
Jun 05 22:26 E 10 10 Cloudy FEW017 BKN024 OVC055 73 71     94%   74 29.77   0